Regional Weather Roundup
Issued by NWS

Home | Current Version | Previous Version | Text Only | Print | Product List | Glossary On
Versions: 1 2 3 4 5 6 7 8 9 10 11 12 13 14 15 16 17 18 19 20 21 22 23 24 25 26 27 28 29 30 31 32 33 34 35 36 37 38 39 40 41 42 43 44 45 46 47 48 49 50
000
ASUS43 KMPX 180710
RWRMN
WEATHER ROUNDUP FOR MINNESOTA
NATIONAL WEATHER SERVICE TWIN CITIES/CHANHASSEN MN
200 AM CDT FRI APR 18 2014


NOTE: "FAIR" INDICATES FEW OR NO CLOUDS BELOW 12,000 FEET WITH NO
SIGNIFICANT WEATHER AND/OR OBSTRUCTIONS TO VISIBILITY. N/A MEANS
CURRENT SKY AND/OR WEATHER CONDITIONS ARE NOT AVAILABLE.

MNZ060>063-068>070-180800-
   Twin Cities Metro

CITY           SKY/WX    TMP DP  RH WIND       PRES   REMARKS
TWIN CITIES    CLEAR     30  26  85 CALM      30.33S
ST PAUL        CLEAR     28  25  88 CALM      30.34S
CRYSTAL        CLEAR     24  21  88 CALM      30.32S FOG
BLAINE         CLEAR     25  25 100 CALM      30.32S FOG
EDEN PRAIRIE   CLEAR     30  26  85 CALM      30.32S
LAKEVILLE      CLEAR     25  25 100 NW3       30.32S
SOUTH ST PAUL  CLEAR     31  27  84 CALM      30.33S
LAKE ELMO      FAIR      28  27  93 CALM      30.33F
$$
MNZ001>005-007-008-013>017-022>024-027-028-180800-
   Northwest Minnesota

CITY           SKY/WX    TMP DP  RH WIND       PRES   REMARKS
BEMIDJI        PTCLDY    26  12  55 NE6       30.28S WCI  19
HALLOCK        CLOUDY    28  18  64 E8        30.30S WCI  20
ROSEAU         CLEAR     25  19  80 CALM      30.31S
WARROAD        CLEAR     21  18  86 CALM      30.32S
THIEF RVR FALL MOCLDY    30  12  47 E7        30.30S WCI  23
CROOKSTON      MOCLDY    30  21  69 E6        30.30F WCI  24
FOSSTON        PTCLDY    25  10  54 E3        30.29S
DETROIT LAKES  PTCLDY    32  19  59 NE3       30.27F
MOORHEAD       MOCLDY    34  25  69 E2        30.30R
PARK RAPIDS    PTCLDY    29  11  47 E3        30.27S
$$
MNZ006-009>011-018-025>026-180800-
   North Central Minnesota

CITY           SKY/WX    TMP DP  RH WIND       PRES   REMARKS
BAUDETTE       CLEAR     23  14  68 CALM      30.32R
FLAG ISLAND    CLEAR     21  12  68 CALM      30.31S
INTL FALLS     CLEAR     21  17  84 CALM      30.31R
WASKISH        CLEAR     19  18  93 CALM      30.31S
BIG FORK       PTCLDY    19  18  93 CALM      30.31R
LONGVILLE      MOCLDY    27  23  86 CALM      30.29S
GRAND RAPIDS   MOCLDY    27  18  69 CALM      30.30S
CRANE LAKE     CLEAR     12   9  85 CALM      30.34S
ORR            CLEAR     18  16  93 CALM      30.29R
COOK           CLEAR     18  16  93 CALM      30.31R
$$
MNZ012-019>021-037-180800-
   Northeast Minnesota

CITY           SKY/WX    TMP DP  RH WIND       PRES   REMARKS
DULUTH         MOCLDY    23  18  81 SW3       30.30R
ELY            CLEAR     18  16  93 CALM      30.30R
HIBBING        PTCLDY    22  18  85 CALM      30.30R
EVELETH        PTCLDY    23  21  93 CALM      30.32R
DULUTH HARBOR  MOCLDY    28  23  80 CALM      30.35R
TWO HARBORS    PTCLDY    27  19  74 CALM      30.29S
SILVER BAY     PTCLDY    27  23  86 CALM      30.29S
GRAND MARAIS     N/A     32  29  88 CALM      30.31S
G MARAIS ARPRT CLOUDY    27  21  80 NW3       30.26S
$$
MNZ029>031-032-039>041-046>048-054>057-064-180800-
   West Central Minnesota

CITY           SKY/WX    TMP DP  RH WIND       PRES   REMARKS
FERGUS FALLS   MOCLDY    36  18  48 CALM      30.27S
WHEATON        CLOUDY    34  30  86 SE5       30.29F WCI  30
MORRIS         MOCLDY    30  27  86 CALM      30.28S
ALEXANDRIA     CLOUDY    29  23  78 CALM      30.29S
ELBOW LAKE     CLOUDY    32  25  74 E3        30.28S
WADENA         CLEAR     27  18  69 CALM      30.27S
GLENWOOD       CLOUDY    27  21  80 CALM      30.29S
APPLETON       MOCLDY    30  23  74 SE3       30.28F
BENSON         CLOUDY    27  21  80 CALM      30.30S
ORTONVILLE     CLOUDY    30  21  69 S5        30.27F WCI  25
MADISON        CLOUDY    34  28  80 CALM      30.28F
WILLMAR        MOCLDY    25  21  86 SE3       30.32S
$$
MNZ033>034-036-042>043-049>051-058-059-180800-
   Central Minnesota

CITY           SKY/WX    TMP DP  RH WIND       PRES   REMARKS
ST CLOUD       PTCLDY    24  20  84 CALM      30.31R
SAUK CENTRE    FAIR      23  18  83 CALM      30.30S
PAYNESVILLE    CLEAR     23  21  92 CALM      30.31S
AITKIN         MOCLDY    30  21  69 CALM      30.28S
PINE RIVER     PTCLDY    28  21  74 E5        30.31S WCI  23
BRAINERD       PTCLDY    34  21  59 SE7       30.29S WCI  28
STAPLES        MOCLDY    27  19  74 CALM      30.27S
LONG PRAIRIE   FAIR      25  21  86 CALM      30.29S
LITTLE FALLS   PTCLDY    27  19  74 CALM      30.30S
LITCHFIELD     CLEAR     27  27 100 SW3       30.31S
BUFFALO        CLEAR     23  20  89 CALM      30.33S
MAPLE LAKE     CLEAR     23  23  98 CALM      30.33R FOG
$$
MNZ037-044-045-052-053-180800-
   East Central Minnesota

CITY           SKY/WX    TMP DP  RH WIND       PRES   REMARKS
PRINCETON      PTCLDY    25  21  86 CALM      30.31S
MORA           CLEAR     21  19  93 CALM      30.33S
CAMBRIDGE      CLEAR     25  18  74 CALM      30.31S
RUSH CITY      CLEAR     23  22  94 CALM      30.33S
MOOSE LAKE     PTCLDY    25  21  86 NE3       30.30S
HINCKLEY       FAIR      23  21  93 CALM      30.31S
CLOQUET        MOCLDY    21  19  93 CALM      30.31R
MCGREGOR       MOCLDY    30  23  74 E5        30.31S WCI  25
$$
MNZ071>073-080-081-089-090-097-098-180800-
   Southwest Minnesota

CITY           SKY/WX    TMP DP  RH WIND       PRES   REMARKS
MONTEVIDEO     CLOUDY    28  25  86 CALM      30.30F
GRANITE FALLS  CLOUDY    26  22  85 SE5       30.31F WCI  20
CANBY          CLOUDY    32  26  78 CALM      30.29S
MARSHALL       CLOUDY    32  25  74 E6        30.27F WCI  26
REDWOOD FALLS  MOCLDY    29  26  89 CALM      30.31S
OLIVIA         PTCLDY    27  23  86 CALM      30.30F
PIPESTONE      CLOUDY    32  27  80 SE8       30.24F WCI  25
WINDOM         PTCLDY    27  27 100 E6        30.29F WCI  20
WORTHINGTON    CLOUDY    30  25  80 E6        30.28F WCI  24
JACKSON        PTCLDY    32  28  86 E6        30.29S WCI  26
TRACY          CLOUDY    32  28  83 CALM      30.28F
SLAYTON        CLOUDY    31  28  85 E5        30.28S WCI  27
$$
MNZ065>067-074>077-082>085-091>093-180800-
   South Central Minnesota

CITY           SKY/WX    TMP DP  RH WIND       PRES   REMARKS
MANKATO        CLEAR     28  25  86 CALM      30.33R
NEW ULM        PTCLDY    28  27  93 CALM      30.31F
ST JAMES       CLEAR     30  28  93 CALM      30.33R
FAIRMONT       PTCLDY    30  27  86 CALM      30.32S
GLENCOE        CLEAR     29  26  88 CALM      30.31F FOG
FARIBAULT      CLEAR     30  27  86 CALM      30.32S FOG
OWATONNA       CLEAR     30  27  86 CALM      30.31S FOG
WASECA         CLEAR     32  30  93 CALM      30.33S FOG
ALBERT LEA     MOCLDY    28  28 100 CALM      30.31S FOG
$$
MNZ078>079-086>088-094>096-180800-
   Southeast Minnesota

CITY           SKY/WX    TMP DP  RH WIND       PRES   REMARKS
ROCHESTER      CLEAR     29  25  85 SW5       30.31S FOG     WCI  24
RED WING       CLEAR     27  25  93 CALM      30.33S FOG
STANTON        CLEAR     28  26  92 CALM      30.31S FOG
DODGE CENTER   PTCLDY    32  30  93 CALM      30.30F
WINONA         CLEAR     30  28  93 W3        30.34S
AUSTIN         CLEAR     27  27 100 CALM      30.31S FOG
PRESTON        CLEAR     30  27  87 CALM      30.31S
$$
ABBREVIATIONS USED IN REMARKS
   TC - TEMPERATURES IN CELSIUS
  WCI - WIND CHILL INDEX
   HX - HEAT INDEX
  VSB - VISIBILITY
$$



USA.gov is the U.S. government's official web portal to all federal, state and local government web resources and services.